Flag Weather past 2 weeks in Toulouse, France

Now
68 °F

Overcast.


Feels Like: 68 °F
Forecast: 56 / 68 °F
Wind: 14 mph from Southeast

Location: Toulouse / Blagnac

Current Time: Nov 22, 2014 at 2:22:20 PM

Latest Report: Nov 22, 2014 at 1:30 PM


Visibility: N/A

Pressure: 29.98 "Hg

Humidity: 78%

Dew point: 61 °F

Location of ToulouseLocation

Historic Weather in Toulouse — Graph

°F

Toulouse temperature yesterday

Maximum temperature yesterday: 66 °F (at 12:30 PM)
Minimum temperature yesterday: 55 °F (at 12:00 AM)
Average temperature yesterday: 60 °F

Past Weeks' High & Low Weather Summary

 TemperatureHumidityPressure
High68 °F (Nov 22, 1:00 PM)100% (Nov 7, 1:30 PM)30.09 "Hg (Nov 7, 1:30 PM)
Low37 °F (Nov 11, 8:00 AM)43% (Nov 13, 1:30 PM)29.47 "Hg (Nov 11, 1:30 PM)
Average52 °F83%29.82 "Hg
* Reported Nov 7 1:30 PM — Nov 22 1:00 PM, Toulouse, Weather by CustomWeather, © 2014

Note: Actual official high and low records may vary slightly from our data, if they occured in-between our weather recording intervals... More about our weather records

Advertising

Toulouse weather history for previous 24 hours

 ConditionsComfort  
Time TempWeatherWind HumidityBarometerVisibility
1:00 PM
Nov 22
68 °FPartly sunny.17 mph73%30.01 "HgN/A
12:30 PM66 °FPartly sunny.20 mph78%30.01 "HgN/A
12:00 PM66 °FOvercast.16 mph78%30.01 "HgN/A
11:30 AM64 °FOvercast.17 mph83%30.01 "HgN/A
11:00 AM64 °FOvercast.16 mph83%30.01 "HgN/A
10:30 AM64 °FOvercast.16 mph83%30.01 "HgN/A
10:00 AM64 °FOvercast.13 mph83%30.01 "HgN/A
9:30 AM63 °FOvercast.14 mph88%29.98 "HgN/A
9:00 AM63 °FOvercast.12 mph88%29.98 "HgN/A
8:30 AM61 °FOvercast.9 mph88%29.98 "HgN/A
8:00 AM61 °FOvercast.12 mph88%29.98 "HgN/A
7:30 AM61 °FOvercast.12 mph88%29.98 "HgN/A
7:00 AM61 °FOvercast.13 mph88%29.98 "HgN/A
6:30 AM61 °FPassing clouds.13 mph88%29.95 "HgN/A
6:00 AM61 °FPassing clouds.14 mph88%29.95 "HgN/A
5:30 AM61 °FPassing clouds.12 mph88%29.95 "HgN/A
5:00 AM61 °FPassing clouds.14 mph88%29.95 "HgN/A
4:30 AM61 °FOvercast.13 mph88%29.98 "HgN/A
4:00 AM61 °FOvercast.15 mph88%29.98 "HgN/A
3:30 AM61 °FPassing clouds.15 mph88%29.98 "HgN/A
3:00 AM61 °FPassing clouds.15 mph88%29.98 "HgN/A
2:30 AM61 °FPassing clouds.14 mph88%29.98 "HgN/A
2:00 AM61 °FPassing clouds.13 mph88%29.98 "HgN/A
1:30 AM61 °FOvercast.13 mph88%29.98 "HgN/A
1:00 AM61 °FPassing clouds.12 mph88%29.98 "HgN/A
12:30 AM61 °FPassing clouds.12 mph88%29.98 "HgN/A
12:00 AM61 °FOvercast.12 mph88%30.01 "HgN/A
11:30 PM
Nov 21
61 °FPassing clouds.12 mph88%30.01 "HgN/A
10:30 PM61 °FOvercast.9 mph88%30.01 "HgN/A
10:00 PM59 °FOvercast.9 mph94%30.01 "HgN/A
9:30 PM59 °FOvercast.8 mph88%30.01 "HgN/A
9:00 PM59 °FOvercast.10 mph88%30.01 "HgN/A
8:30 PM59 °FPassing clouds.9 mph88%30.01 "HgN/A
8:00 PM59 °FPassing clouds.9 mph88%30.01 "HgN/A
7:30 PM59 °FPassing clouds.12 mph88%30.01 "HgN/A
7:00 PM59 °FPassing clouds.12 mph88%30.01 "HgN/A
6:30 PM61 °FPassing clouds.12 mph83%30.04 "HgN/A
6:00 PM61 °FPassing clouds.14 mph83%30.01 "HgN/A
5:30 PM61 °FPassing clouds.12 mph83%30.01 "HgN/A
5:00 PM63 °FPassing clouds.13 mph77%30.01 "HgN/A
4:30 PM63 °FClear.17 mph77%30.01 "HgN/A
4:00 PM64 °FPassing clouds.17 mph73%30.01 "HgN/A
3:30 PM64 °FClear.18 mph73%30.01 "HgN/A
3:00 PM66 °FClear.20 mph68%30.01 "HgN/A
2:30 PM66 °FClear.17 mph68%30.01 "HgN/A
2:00 PM66 °FPassing clouds.18 mph68%30.01 "HgN/A
Weather by CustomWeather, © 2014

See weather overviewHow to use our weather pages